Location: Ariel
(45.9570°N, 122.5700°W)
Time: 11:09:53
(UTC-07:00)

Courier 1B Rocket - Visible Passes

Search period start: 18 August 2019 00:00
Search period end: 28 August 2019 00:00
Orbit: 920 x 1202 km, 28.3° (Epoch: 16 August)

Date Brightness Start Highest point End Pass type
(mag) Time Alt. Az. Time Alt. Az. Time Alt. Az.
19 Aug 7.2 05:33:28 10° SSW 05:37:42 16° SSE 05:41:57 10° SE visible
20 Aug 7.2 04:34:00 10° S 04:36:54 12° SSE 04:39:52 10° SE visible
21 Aug 7.0 05:23:37 10° SSW 05:28:25 18° S 05:33:18 10° SE visible
22 Aug 7.0 04:25:12 13° S 04:27:37 15° SSE 04:31:44 10° SE visible
23 Aug 7.2 03:27:54 12° SSE 03:27:54 12° SSE 03:29:28 10° SE visible
23 Aug 6.9 05:14:15 10° SW 05:19:10 19° S 05:24:20 10° SE visible
24 Aug 6.8 04:16:57 17° S 04:18:21 17° SSE 04:23:01 10° SE visible
25 Aug 7.2 03:19:40 13° SE 03:19:40 13° SE 03:21:22 10° SE visible
25 Aug 6.8 05:06:02 13° SW 05:09:57 20° S 05:15:07 10° SE visible
26 Aug 6.7 04:08:48 18° S 04:09:07 19° S 04:14:01 10° SE visible
27 Aug 7.2 03:11:36 12° SE 03:11:36 12° SE 03:12:40 10° SE visible
27 Aug 6.7 04:57:58 15° SSW 05:00:44 19° S 05:05:41 10° SE visible
